User: anonymous   Login
Location: Unspecified
(0.0000°N, 0.0000°E)
Time: 13:09:41
(UTC+01:00)
Language:

Cosmos 407 Rocket - Orbit

View from above orbital plane
View from above orbital plane
View from above satellite
View from above satellite

Ground track
Ground track

The orbit data is extracted from the following two-line orbital elements,

1 05175U 71035B   14327.63860795  .00000393  00000-0  13925-3 0  5630
2 05175 074.0475 132.1407 0030521 214.9794 144.9355 14.37560481280350
Epoch (UTC): 23 November 2014 15:19:35
Eccentricity: 0.0030521
inclination: 74.0475°
perigee height: 745 km
apogee height: 788 km
right ascension of ascending node: 132.1407°
argument of perigee: 214.9794°
revolutions per day: 14.37560481
mean anomaly at epoch: 144.9355°
orbit number at epoch: 28035

The dashed part of the orbit path shows where the satellite is in the earth's shadow,  

DLR